Location: Chippewa Lake
(41.0698°N, 81.9010°W)
Time: 21:51:32
(UTC+00:00)

OAO 3 Rocket - Pass Details

Date: 09 May 2021
Orbit: 629 x 682 km, 35.0° (Epoch: 16 June)

Event Time Altitude Azimuth Distance (km) Brightness Sun altitude
Exits shadow 08:48:23 21° 206° (SSW) 1,472 4.4 -14.8°
Maximum altitude 08:48:37 21° 202° (SSW) 1,470 4.5 -14.7°
Drops below altitude 10° 08:52:17 10° 153° (SSE) 2,090 5.6 -14.2°
Sets 08:55:08 0° 138° (SE) 3,010 6.6 -13.8°
